Year,Month,Day,Hour,Minute,Value (Times are PST for temperature in C)
2014,08,22,00,00,12.80
2014,08,22,00,01,12.80
2014,08,22,00,02,12.80
2014,08,22,00,03,12.80
2014,08,22,00,04,12.80
2014,08,22,00,05,12.80
2014,08,22,00,06,12.80
2014,08,22,00,07,12.80
2014,08,22,00,08,12.80
2014,08,22,00,09,12.80
2014,08,22,00,10,12.80
2014,08,22,00,11,12.80
2014,08,22,00,12,12.70
2014,08,22,00,13,12.70
2014,08,22,00,14,12.70
2014,08,22,00,15,12.70
2014,08,22,00,16,12.70
2014,08,22,00,17,12.70
2014,08,22,00,18,12.70
2014,08,22,00,19,12.70
2014,08,22,00,20,12.70
2014,08,22,00,21,12.60
2014,08,22,00,22,12.60
2014,08,22,00,23,12.60
2014,08,22,00,24,12.60
2014,08,22,00,25,12.60
2014,08,22,00,26,12.60
2014,08,22,00,27,12.50
2014,08,22,00,28,12.50
2014,08,22,00,29,12.50
2014,08,22,00,30,12.50
2014,08,22,00,31,12.50
2014,08,22,00,32,12.50
2014,08,22,00,33,12.50
2014,08,22,00,34,12.50
2014,08,22,00,35,12.50
2014,08,22,00,36,12.50
2014,08,22,00,37,12.50
2014,08,22,00,38,12.50
2014,08,22,00,39,12.50
2014,08,22,00,40,12.40
2014,08,22,00,41,12.40
2014,08,22,00,42,12.40
2014,08,22,00,43,12.40
2014,08,22,00,44,12.30
2014,08,22,00,45,12.30
2014,08,22,00,46,12.30
2014,08,22,00,47,12.30
2014,08,22,00,48,12.30
2014,08,22,00,49,12.30
2014,08,22,00,50,12.30
2014,08,22,00,51,12.30
2014,08,22,00,52,12.30
2014,08,22,00,53,12.30
2014,08,22,00,54,12.30
2014,08,22,00,55,12.20
2014,08,22,00,56,12.20
2014,08,22,00,57,12.20
2014,08,22,00,58,12.20
2014,08,22,00,59,12.20
2014,08,22,01,00,12.20
2014,08,22,01,01,12.20
2014,08,22,01,02,12.20
2014,08,22,01,03,12.20
2014,08,22,01,04,12.20
2014,08,22,01,05,12.20
2014,08,22,01,06,12.20
2014,08,22,01,07,12.10
2014,08,22,01,08,12.10
2014,08,22,01,09,12.10
2014,08,22,01,10,12.10
2014,08,22,01,11,12.10
2014,08,22,01,12,12.10
2014,08,22,01,13,12.00
2014,08,22,01,14,12.00
2014,08,22,01,15,12.00
2014,08,22,01,16,12.00
2014,08,22,01,17,12.00
2014,08,22,01,18,12.00
2014,08,22,01,19,12.00
2014,08,22,01,20,12.00
2014,08,22,01,21,12.00
2014,08,22,01,22,12.00
2014,08,22,01,23,11.90
2014,08,22,01,24,11.90
2014,08,22,01,25,11.90
2014,08,22,01,26,11.90
2014,08,22,01,27,11.90
2014,08,22,01,28,11.80
2014,08,22,01,29,11.80
2014,08,22,01,30,11.80
2014,08,22,01,31,11.90
2014,08,22,01,32,11.90
2014,08,22,01,33,11.90
2014,08,22,01,34,11.90
2014,08,22,01,35,11.90
2014,08,22,01,36,11.80
2014,08,22,01,37,11.80
2014,08,22,01,38,11.80
2014,08,22,01,39,11.80
2014,08,22,01,40,11.80
2014,08,22,01,41,11.80
2014,08,22,01,42,11.80
2014,08,22,01,43,11.80
2014,08,22,01,44,11.80
2014,08,22,01,45,11.80
2014,08,22,01,46,11.80
2014,08,22,01,47,11.80
2014,08,22,01,48,11.80
2014,08,22,01,49,11.80
2014,08,22,01,50,11.90
2014,08,22,01,51,11.90
2014,08,22,01,52,11.90
2014,08,22,01,53,11.90
2014,08,22,01,54,11.90
2014,08,22,01,55,12.00
2014,08,22,01,56,12.00
2014,08,22,01,57,12.00
2014,08,22,01,58,12.00
2014,08,22,01,59,12.00
2014,08,22,02,00,12.00
2014,08,22,02,01,12.00
2014,08,22,02,02,11.90
2014,08,22,02,03,11.90
2014,08,22,02,04,11.90
2014,08,22,02,05,11.90
2014,08,22,02,06,11.90
2014,08,22,02,07,11.90
2014,08,22,02,08,11.80
2014,08,22,02,09,11.80
2014,08,22,02,10,11.80
2014,08,22,02,11,11.80
2014,08,22,02,12,11.90
2014,08,22,02,13,11.90
2014,08,22,02,14,12.00
2014,08,22,02,15,12.10
2014,08,22,02,16,12.10
2014,08,22,02,17,12.20
2014,08,22,02,18,12.20
2014,08,22,02,19,12.20
2014,08,22,02,20,12.20
2014,08,22,02,21,12.20
2014,08,22,02,22,12.20
2014,08,22,02,23,12.20
2014,08,22,02,24,12.20
2014,08,22,02,25,12.20
2014,08,22,02,26,12.20
2014,08,22,02,27,12.20
2014,08,22,02,28,12.20
2014,08,22,02,29,12.10
2014,08,22,02,30,12.10
2014,08,22,02,31,12.10
2014,08,22,02,32,12.10
2014,08,22,02,33,12.00
2014,08,22,02,34,12.00
2014,08,22,02,35,12.10
2014,08,22,02,36,12.10
2014,08,22,02,37,12.10
2014,08,22,02,38,12.10
2014,08,22,02,39,12.10
2014,08,22,02,40,12.10
2014,08,22,02,41,12.10
2014,08,22,02,42,12.10
2014,08,22,02,43,12.10
2014,08,22,02,44,12.10
2014,08,22,02,45,12.10
2014,08,22,02,46,12.10
2014,08,22,02,47,12.10
2014,08,22,02,48,12.10
2014,08,22,02,49,12.10
2014,08,22,02,50,12.10
2014,08,22,02,51,12.10
2014,08,22,02,52,12.10
2014,08,22,02,53,12.10
2014,08,22,02,54,12.10
2014,08,22,02,55,12.10
2014,08,22,02,56,12.10
2014,08,22,02,57,12.00
2014,08,22,02,58,12.00
2014,08,22,02,59,12.00
2014,08,22,03,00,12.00
2014,08,22,03,01,12.00
2014,08,22,03,02,12.00
2014,08,22,03,03,12.00
2014,08,22,03,04,12.00
2014,08,22,03,05,12.00
2014,08,22,03,06,12.00
2014,08,22,03,07,12.00
2014,08,22,03,08,12.00
2014,08,22,03,09,12.00
2014,08,22,03,10,12.00
2014,08,22,03,11,12.00
2014,08,22,03,12,12.00
2014,08,22,03,13,11.90
2014,08,22,03,14,12.00
2014,08,22,03,15,12.00
2014,08,22,03,16,12.00
2014,08,22,03,17,12.00
2014,08,22,03,18,11.90
2014,08,22,03,19,11.90
2014,08,22,03,20,11.90
2014,08,22,03,21,11.90
2014,08,22,03,22,11.90
2014,08,22,03,23,11.90
2014,08,22,03,24,11.80
2014,08,22,03,25,11.80
2014,08,22,03,26,11.80
2014,08,22,03,27,11.80
2014,08,22,03,28,11.80
2014,08,22,03,29,11.90
2014,08,22,03,30,11.90
2014,08,22,03,31,11.90
2014,08,22,03,32,11.90
2014,08,22,03,33,11.90
2014,08,22,03,34,11.90
2014,08,22,03,35,11.90
2014,08,22,03,36,11.90
2014,08,22,03,37,11.80
2014,08,22,03,38,11.80
2014,08,22,03,39,11.80
2014,08,22,03,40,11.80
2014,08,22,03,41,11.80
2014,08,22,03,42,11.80
2014,08,22,03,43,11.80
2014,08,22,03,44,11.80
2014,08,22,03,45,11.80
2014,08,22,03,46,11.80
2014,08,22,03,47,11.70
2014,08,22,03,48,11.70
2014,08,22,03,49,11.70
2014,08,22,03,50,11.70
2014,08,22,03,51,11.80
2014,08,22,03,52,11.80
2014,08,22,03,53,11.80
2014,08,22,03,54,11.80
2014,08,22,03,55,11.80
2014,08,22,03,56,11.80
2014,08,22,03,57,11.80
2014,08,22,03,58,11.80
2014,08,22,03,59,11.80
2014,08,22,04,00,11.80
2014,08,22,04,01,11.80
2014,08,22,04,02,11.80
2014,08,22,04,03,11.80
2014,08,22,04,04,11.80
2014,08,22,04,05,11.80
2014,08,22,04,06,11.80
2014,08,22,04,07,11.80
2014,08,22,04,08,11.80
2014,08,22,04,09,11.80
2014,08,22,04,10,11.80
2014,08,22,04,11,11.80
2014,08,22,04,12,11.80
2014,08,22,04,13,11.70
2014,08,22,04,14,11.70
2014,08,22,04,15,11.70
2014,08,22,04,16,11.60
2014,08,22,04,17,11.60
2014,08,22,04,18,11.60
2014,08,22,04,19,11.60
2014,08,22,04,20,11.60
2014,08,22,04,21,11.70
2014,08,22,04,22,11.70
2014,08,22,04,23,11.80
2014,08,22,04,24,11.80
2014,08,22,04,25,11.80
2014,08,22,04,26,11.80
2014,08,22,04,27,11.90
2014,08,22,04,28,11.90
2014,08,22,04,29,11.80
2014,08,22,04,30,11.80
2014,08,22,04,31,11.80
2014,08,22,04,32,11.80
2014,08,22,04,33,11.80
2014,08,22,04,34,11.80
2014,08,22,04,35,11.80
2014,08,22,04,36,11.80
2014,08,22,04,37,11.80
2014,08,22,04,38,11.80
2014,08,22,04,39,11.80
2014,08,22,04,40,11.80
2014,08,22,04,41,11.80
2014,08,22,04,42,11.80
2014,08,22,04,43,11.70
2014,08,22,04,44,11.70
2014,08,22,04,45,11.70
2014,08,22,04,46,11.70
2014,08,22,04,47,11.60
2014,08,22,04,48,11.60
2014,08,22,04,49,11.60
2014,08,22,04,50,11.60
2014,08,22,04,51,11.60
2014,08,22,04,52,11.60
2014,08,22,04,53,11.40
2014,08,22,04,54,11.40
2014,08,22,04,55,11.40
2014,08,22,04,56,11.40
2014,08,22,04,57,11.40
2014,08,22,04,58,11.40
2014,08,22,04,59,11.40
2014,08,22,05,00,11.40
2014,08,22,05,01,11.40
2014,08,22,05,02,11.40
2014,08,22,05,03,11.30
2014,08,22,05,04,11.30
2014,08,22,05,05,11.30
2014,08,22,05,06,11.30
2014,08,22,05,07,11.20
2014,08,22,05,08,11.20
2014,08,22,05,09,11.20
2014,08,22,05,10,11.20
2014,08,22,05,11,11.20
2014,08,22,05,12,11.20
2014,08,22,05,13,11.20
2014,08,22,05,14,11.20
2014,08,22,05,15,11.10
2014,08,22,05,16,11.10
2014,08,22,05,17,11.10
2014,08,22,05,18,11.10
2014,08,22,05,19,11.10
2014,08,22,05,20,11.10
2014,08,22,05,21,11.10
2014,08,22,05,22,11.10
2014,08,22,05,23,11.10
2014,08,22,05,24,11.10
2014,08,22,05,25,11.10
2014,08,22,05,26,11.10
2014,08,22,05,27,11.10
2014,08,22,05,28,11.10
2014,08,22,05,29,11.10
2014,08,22,05,30,11.10
2014,08,22,05,31,11.10
2014,08,22,05,32,11.10
2014,08,22,05,33,11.10
2014,08,22,05,34,11.20
2014,08,22,05,35,11.20
2014,08,22,05,36,11.20
2014,08,22,05,37,11.20
2014,08,22,05,38,11.30
2014,08,22,05,39,11.30
2014,08,22,05,40,11.30
2014,08,22,05,41,11.30
2014,08,22,05,42,11.40
2014,08,22,05,43,11.40
2014,08,22,05,44,11.40
2014,08,22,05,45,11.40
2014,08,22,05,46,11.40
2014,08,22,05,47,11.40
2014,08,22,05,48,11.40
2014,08,22,05,49,11.40
2014,08,22,05,50,11.40
2014,08,22,05,51,11.40
2014,08,22,05,52,11.40
2014,08,22,05,53,11.60
2014,08,22,05,54,11.60
2014,08,22,05,55,11.60
2014,08,22,05,56,11.60
2014,08,22,05,57,11.60
2014,08,22,05,58,11.60
2014,08,22,05,59,11.60
2014,08,22,06,00,11.60
2014,08,22,06,01,11.60
2014,08,22,06,02,11.60
2014,08,22,06,03,11.60
2014,08,22,06,04,11.60
2014,08,22,06,05,11.60
2014,08,22,06,06,11.60
2014,08,22,06,07,11.60
2014,08,22,06,08,11.60
2014,08,22,06,09,11.60
2014,08,22,06,10,11.60
2014,08,22,06,11,11.60
2014,08,22,06,12,11.60
2014,08,22,06,13,11.60
2014,08,22,06,14,11.60
2014,08,22,06,15,11.60
2014,08,22,06,16,11.60
2014,08,22,06,17,11.60
2014,08,22,06,18,11.60
2014,08,22,06,19,11.70
2014,08,22,06,20,11.70
2014,08,22,06,21,11.70
2014,08,22,06,22,11.70
2014,08,22,06,23,11.70
2014,08,22,06,24,11.70
2014,08,22,06,25,11.70
2014,08,22,06,26,11.70
2014,08,22,06,27,11.70
2014,08,22,06,28,11.70
2014,08,22,06,29,11.70
2014,08,22,06,30,11.70
2014,08,22,06,31,11.60
2014,08,22,06,32,11.60
2014,08,22,06,33,11.60
2014,08,22,06,34,11.60
2014,08,22,06,35,11.60
2014,08,22,06,36,11.60
2014,08,22,06,37,11.60
2014,08,22,06,38,11.70
2014,08,22,06,39,11.70
2014,08,22,06,40,11.70
2014,08,22,06,41,11.70
2014,08,22,06,42,11.70
2014,08,22,06,43,11.70
2014,08,22,06,44,11.70
2014,08,22,06,45,11.70
2014,08,22,06,46,11.80
2014,08,22,06,47,11.80
2014,08,22,06,48,11.80
2014,08,22,06,49,11.80
2014,08,22,06,50,11.80
2014,08,22,06,51,11.80
2014,08,22,06,52,11.80
2014,08,22,06,53,11.80
2014,08,22,06,54,11.80
2014,08,22,06,55,11.80
2014,08,22,06,56,11.80
2014,08,22,06,57,11.80
2014,08,22,06,58,11.80
2014,08,22,06,59,11.80
2014,08,22,07,00,11.80
2014,08,22,07,01,11.80
2014,08,22,07,02,11.80
2014,08,22,07,03,11.80
2014,08,22,07,04,11.80
2014,08,22,07,05,11.80
2014,08,22,07,06,11.80
2014,08,22,07,07,11.80
2014,08,22,07,08,11.80
2014,08,22,07,09,11.80
2014,08,22,07,10,11.90
2014,08,22,07,11,12.00
2014,08,22,07,12,12.00
2014,08,22,07,13,12.10
2014,08,22,07,14,12.10
2014,08,22,07,15,12.10
2014,08,22,07,16,12.20
2014,08,22,07,17,12.30
2014,08,22,07,18,12.30
2014,08,22,07,19,12.40
2014,08,22,07,20,12.50
2014,08,22,07,21,12.50
2014,08,22,07,22,12.60
2014,08,22,07,23,12.60
2014,08,22,07,24,12.70
2014,08,22,07,25,12.70
2014,08,22,07,26,12.80
2014,08,22,07,27,12.80
2014,08,22,07,28,12.80
2014,08,22,07,29,12.80
2014,08,22,07,30,12.80
2014,08,22,07,31,12.90
2014,08,22,07,32,13.00
2014,08,22,07,33,13.10
2014,08,22,07,34,13.10
2014,08,22,07,35,13.20
2014,08,22,07,36,13.20
2014,08,22,07,37,13.30
2014,08,22,07,38,13.30
2014,08,22,07,39,13.30
2014,08,22,07,40,13.40
2014,08,22,07,41,13.40
2014,08,22,07,42,13.50
2014,08,22,07,43,13.50
2014,08,22,07,44,13.50
2014,08,22,07,45,13.60
2014,08,22,07,46,13.60
2014,08,22,07,47,13.60
2014,08,22,07,48,13.70
2014,08,22,07,49,13.70
2014,08,22,07,50,13.80
2014,08,22,07,51,13.80
2014,08,22,07,52,13.80
2014,08,22,07,53,13.90
2014,08,22,07,54,13.90
2014,08,22,07,55,13.90
2014,08,22,07,56,13.90
2014,08,22,07,57,13.80
2014,08,22,07,58,13.80
2014,08,22,07,59,13.70
2014,08,22,08,00,13.70
2014,08,22,08,01,13.70
2014,08,22,08,02,13.70
2014,08,22,08,03,13.70
2014,08,22,08,04,13.70
2014,08,22,08,05,13.70
2014,08,22,08,06,13.70
2014,08,22,08,07,13.80
2014,08,22,08,08,13.80
2014,08,22,08,09,13.80
2014,08,22,08,10,13.80
2014,08,22,08,11,13.80
2014,08,22,08,12,13.90
2014,08,22,08,13,13.90
2014,08,22,08,14,13.90
2014,08,22,08,15,13.90
2014,08,22,08,16,14.00
2014,08,22,08,17,14.00
2014,08,22,08,18,14.00
2014,08,22,08,19,14.00
2014,08,22,08,20,14.10
2014,08,22,08,21,14.10
2014,08,22,08,22,14.10
2014,08,22,08,23,14.20
2014,08,22,08,24,14.20
2014,08,22,08,25,14.20
2014,08,22,08,26,14.20
2014,08,22,08,27,14.20
2014,08,22,08,28,14.30
2014,08,22,08,29,14.30
2014,08,22,08,30,14.40
2014,08,22,08,31,14.40
2014,08,22,08,32,14.40
2014,08,22,08,33,14.50
2014,08,22,08,34,14.50
2014,08,22,08,35,14.50
2014,08,22,08,36,14.60
2014,08,22,08,37,14.70
2014,08,22,08,38,14.70
2014,08,22,08,39,14.80
2014,08,22,08,40,14.80
2014,08,22,08,41,14.80
2014,08,22,08,42,14.90
2014,08,22,08,43,14.90
2014,08,22,08,44,14.90
2014,08,22,08,45,14.90
2014,08,22,08,46,14.90
2014,08,22,08,47,14.90
2014,08,22,08,48,14.90
2014,08,22,08,49,15.00
2014,08,22,08,50,15.00
2014,08,22,08,51,15.00
2014,08,22,08,52,15.00
2014,08,22,08,53,15.00
2014,08,22,08,54,15.10
2014,08,22,08,55,15.10
2014,08,22,08,56,15.10
2014,08,22,08,57,15.10
2014,08,22,08,58,15.20
2014,08,22,08,59,15.30
2014,08,22,09,00,15.30
2014,08,22,09,01,15.40
2014,08,22,09,02,15.50
2014,08,22,09,03,15.50
2014,08,22,09,04,15.60
2014,08,22,09,05,15.70
2014,08,22,09,06,15.70
2014,08,22,09,07,15.80
2014,08,22,09,08,15.90
2014,08,22,09,09,16.00
2014,08,22,09,10,16.10
2014,08,22,09,11,16.10
2014,08,22,09,12,16.30
2014,08,22,09,13,16.40
2014,08,22,09,14,16.50
2014,08,22,09,15,16.60
2014,08,22,09,16,16.70
2014,08,22,09,17,16.80
2014,08,22,09,18,16.90
2014,08,22,09,19,17.00
2014,08,22,09,20,17.10
2014,08,22,09,21,17.20
2014,08,22,09,22,17.30
2014,08,22,09,23,17.30
2014,08,22,09,24,17.30
2014,08,22,09,25,17.30
2014,08,22,09,26,17.30
2014,08,22,09,27,17.40
2014,08,22,09,28,17.50
2014,08,22,09,29,17.60
2014,08,22,09,30,17.60
2014,08,22,09,31,17.60
2014,08,22,09,32,17.70
2014,08,22,09,33,17.70
2014,08,22,09,34,17.80
2014,08,22,09,35,17.80
2014,08,22,09,36,17.80
2014,08,22,09,37,17.90
2014,08,22,09,38,17.90
2014,08,22,09,39,18.00
2014,08,22,09,40,18.10
2014,08,22,09,41,18.10
2014,08,22,09,42,18.20
2014,08,22,09,43,18.30
2014,08,22,09,44,18.40
2014,08,22,09,45,18.50
2014,08,22,09,46,18.60
2014,08,22,09,47,18.70
2014,08,22,09,48,18.80
2014,08,22,09,49,18.90
2014,08,22,09,50,19.00
2014,08,22,09,51,19.10
2014,08,22,09,52,19.20
2014,08,22,09,53,19.30
2014,08,22,09,54,19.30
2014,08,22,09,55,19.30
2014,08,22,09,56,19.40
2014,08,22,09,57,19.40
2014,08,22,09,58,19.50
2014,08,22,09,59,19.60
2014,08,22,10,00,19.60
2014,08,22,10,01,19.80
2014,08,22,10,02,19.90
2014,08,22,10,03,19.90
2014,08,22,10,04,20.00
2014,08,22,10,05,20.10
2014,08,22,10,06,20.20
2014,08,22,10,07,20.20
2014,08,22,10,08,20.20
2014,08,22,10,09,20.20
2014,08,22,10,10,20.20
2014,08,22,10,11,20.20
2014,08,22,10,12,20.20
2014,08,22,10,13,20.30
2014,08,22,10,14,20.30
2014,08,22,10,15,20.30
2014,08,22,10,16,20.30
2014,08,22,10,17,20.40
2014,08,22,10,18,20.40
2014,08,22,10,19,20.40
2014,08,22,10,20,20.40
2014,08,22,10,21,20.40
2014,08,22,10,22,20.30
2014,08,22,10,23,20.30
2014,08,22,10,24,20.30
2014,08,22,10,25,20.20
2014,08,22,10,26,20.30
2014,08,22,10,27,20.40
2014,08,22,10,28,20.40
2014,08,22,10,29,20.50
2014,08,22,10,30,20.50
2014,08,22,10,31,20.50
2014,08,22,10,32,20.60
2014,08,22,10,33,20.60
2014,08,22,10,34,20.60
2014,08,22,10,35,20.60
2014,08,22,10,36,20.60
2014,08,22,10,37,20.50
2014,08,22,10,38,20.50
2014,08,22,10,39,20.40
2014,08,22,10,40,20.40
2014,08,22,10,41,20.30
2014,08,22,10,42,20.40
2014,08,22,10,43,20.40
2014,08,22,10,44,20.40
2014,08,22,10,45,20.50
2014,08,22,10,46,20.50
2014,08,22,10,47,20.60
2014,08,22,10,48,20.70
2014,08,22,10,49,20.80
2014,08,22,10,50,20.80
2014,08,22,10,51,20.80
2014,08,22,10,52,20.80
2014,08,22,10,53,20.80
2014,08,22,10,54,20.80
2014,08,22,10,55,20.70
2014,08,22,10,56,20.60
2014,08,22,10,57,20.60
2014,08,22,10,58,20.50
2014,08,22,10,59,20.50
2014,08,22,11,00,20.50
2014,08,22,11,01,20.50
2014,08,22,11,02,20.60
2014,08,22,11,03,20.60
2014,08,22,11,04,20.60
2014,08,22,11,05,20.70
2014,08,22,11,06,20.60
2014,08,22,11,07,20.60
2014,08,22,11,08,20.50
2014,08,22,11,09,20.50
2014,08,22,11,10,20.50
2014,08,22,11,11,20.50
2014,08,22,11,12,20.50
2014,08,22,11,13,20.50
2014,08,22,11,14,20.50
2014,08,22,11,15,20.60
2014,08,22,11,16,20.70
2014,08,22,11,17,20.80
2014,08,22,11,18,20.80
2014,08,22,11,19,20.80
2014,08,22,11,20,20.80
2014,08,22,11,21,20.80
2014,08,22,11,22,20.80
2014,08,22,11,23,20.80
2014,08,22,11,24,20.80
2014,08,22,11,25,20.80
2014,08,22,11,26,20.70
2014,08,22,11,27,20.60
2014,08,22,11,28,20.60
2014,08,22,11,29,20.60
2014,08,22,11,30,20.60
2014,08,22,11,31,20.70
2014,08,22,11,32,20.70
2014,08,22,11,33,20.70
2014,08,22,11,34,20.70
2014,08,22,11,35,20.80
2014,08,22,11,36,20.90
2014,08,22,11,37,20.90
2014,08,22,11,38,20.90
2014,08,22,11,39,20.80
2014,08,22,11,40,20.80
2014,08,22,11,41,20.70
2014,08,22,11,42,20.70
2014,08,22,11,43,20.70
2014,08,22,11,44,20.80
2014,08,22,11,45,20.80
2014,08,22,11,46,20.80
2014,08,22,11,47,20.80
2014,08,22,11,48,20.90
2014,08,22,11,49,21.00
2014,08,22,11,50,21.10
2014,08,22,11,51,21.20
2014,08,22,11,52,21.30
2014,08,22,11,53,21.30
2014,08,22,11,54,21.20
2014,08,22,11,55,21.20
2014,08,22,11,56,21.20
2014,08,22,11,57,21.20
2014,08,22,11,58,21.10
2014,08,22,11,59,21.10
2014,08,22,12,00,21.10
2014,08,22,12,01,21.10
2014,08,22,12,02,21.10
2014,08,22,12,03,21.10
2014,08,22,12,04,21.10
2014,08,22,12,05,21.10
2014,08,22,12,06,21.10
2014,08,22,12,07,21.20
2014,08,22,12,08,21.20
2014,08,22,12,09,21.30
2014,08,22,12,10,21.30
2014,08,22,12,11,21.40
2014,08,22,12,12,21.60
2014,08,22,12,13,21.60
2014,08,22,12,14,21.60
2014,08,22,12,15,21.70
2014,08,22,12,16,21.70
2014,08,22,12,17,21.70
2014,08,22,12,18,21.80
2014,08,22,12,19,21.80
2014,08,22,12,20,21.80
2014,08,22,12,21,21.90
2014,08,22,12,22,21.90
2014,08,22,12,23,21.90
2014,08,22,12,24,21.80
2014,08,22,12,25,21.70
2014,08,22,12,26,21.50
2014,08,22,12,27,21.40
2014,08,22,12,28,21.30
2014,08,22,12,29,21.30
2014,08,22,12,30,21.30
2014,08,22,12,31,21.30
2014,08,22,12,32,21.30
2014,08,22,12,33,21.20
2014,08,22,12,34,21.20
2014,08,22,12,35,21.10
2014,08,22,12,36,21.10
2014,08,22,12,37,21.10
2014,08,22,12,38,21.20
2014,08,22,12,39,21.20
2014,08,22,12,40,21.30
2014,08,22,12,41,21.40
2014,08,22,12,42,21.40
2014,08,22,12,43,21.40
2014,08,22,12,44,21.30
2014,08,22,12,45,21.30
2014,08,22,12,46,21.30
2014,08,22,12,47,21.30
2014,08,22,12,48,21.30
2014,08,22,12,49,21.30
2014,08,22,12,50,21.30
2014,08,22,12,51,21.30
2014,08,22,12,52,21.30
2014,08,22,12,53,21.30
2014,08,22,12,54,21.30
2014,08,22,12,55,21.30
2014,08,22,12,56,21.40
2014,08,22,12,57,21.40
2014,08,22,12,58,21.30
2014,08,22,12,59,21.30
2014,08,22,13,00,21.30
2014,08,22,13,01,21.30
2014,08,22,13,02,21.30
2014,08,22,13,03,21.20
2014,08,22,13,04,21.10
2014,08,22,13,05,21.10
2014,08,22,13,06,21.10
2014,08,22,13,07,21.20
2014,08,22,13,08,21.30
2014,08,22,13,09,21.30
2014,08,22,13,10,21.50
2014,08,22,13,11,21.40
2014,08,22,13,12,21.30
2014,08,22,13,13,21.20
2014,08,22,13,14,21.20
2014,08,22,13,15,21.30
2014,08,22,13,16,21.30
2014,08,22,13,17,21.30
2014,08,22,13,18,21.30
2014,08,22,13,19,21.30
2014,08,22,13,20,21.20
2014,08,22,13,21,21.20
2014,08,22,13,22,21.30
2014,08,22,13,23,21.30
2014,08,22,13,24,21.30
2014,08,22,13,25,21.40
2014,08,22,13,26,21.60
2014,08,22,13,27,21.60
2014,08,22,13,28,21.60
2014,08,22,13,29,21.60
2014,08,22,13,30,21.60
2014,08,22,13,31,21.60
2014,08,22,13,32,21.60
2014,08,22,13,33,21.60
2014,08,22,13,34,21.70
2014,08,22,13,35,21.70
2014,08,22,13,36,21.70
2014,08,22,13,37,21.70
2014,08,22,13,38,21.60
2014,08,22,13,39,21.60
2014,08,22,13,40,21.60
2014,08,22,13,41,21.60
2014,08,22,13,42,21.60
2014,08,22,13,43,21.60
2014,08,22,13,44,21.60
2014,08,22,13,45,21.60
2014,08,22,13,46,21.60
2014,08,22,13,47,21.60
2014,08,22,13,48,21.60
2014,08,22,13,49,21.60
2014,08,22,13,50,21.60
2014,08,22,13,51,21.40
2014,08,22,13,52,21.30
2014,08,22,13,53,21.30
2014,08,22,13,54,21.30
2014,08,22,13,55,21.20
2014,08,22,13,56,21.30
2014,08,22,13,57,21.30
2014,08,22,13,58,21.30
2014,08,22,13,59,21.40
2014,08,22,14,00,21.50
2014,08,22,14,01,21.60
2014,08,22,14,02,21.80
2014,08,22,14,03,22.00
2014,08,22,14,04,22.10
2014,08,22,14,05,22.20
2014,08,22,14,06,22.30
2014,08,22,14,07,22.40
2014,08,22,14,08,22.30
2014,08,22,14,09,22.30
2014,08,22,14,10,22.20
2014,08,22,14,11,22.10
2014,08,22,14,12,22.10
2014,08,22,14,13,22.20
2014,08,22,14,14,22.20
2014,08,22,14,15,22.20
2014,08,22,14,16,22.30
2014,08,22,14,17,22.40
2014,08,22,14,18,22.50
2014,08,22,14,19,22.60
2014,08,22,14,20,22.60
2014,08,22,14,21,22.70
2014,08,22,14,22,22.70
2014,08,22,14,23,22.70
2014,08,22,14,24,22.70
2014,08,22,14,25,22.60
2014,08,22,14,26,22.60
2014,08,22,14,27,22.50
2014,08,22,14,28,22.40
2014,08,22,14,29,22.30
2014,08,22,14,30,22.20
2014,08,22,14,31,22.30
2014,08,22,14,32,22.30
2014,08,22,14,33,22.40
2014,08,22,14,34,22.50
2014,08,22,14,35,22.50
2014,08,22,14,36,22.50
2014,08,22,14,37,22.60
2014,08,22,14,38,22.60
2014,08,22,14,39,22.50
2014,08,22,14,40,22.50
2014,08,22,14,41,22.60
2014,08,22,14,42,22.60
2014,08,22,14,43,22.60
2014,08,22,14,44,22.60
2014,08,22,14,45,22.40
2014,08,22,14,46,22.40
2014,08,22,14,47,22.50
2014,08,22,14,48,22.50
2014,08,22,14,49,22.50
2014,08,22,14,50,22.40
2014,08,22,14,51,22.20
2014,08,22,14,52,22.00
2014,08,22,14,53,22.00
2014,08,22,14,54,22.00
2014,08,22,14,55,22.00
2014,08,22,14,56,22.00
2014,08,22,14,57,22.00
2014,08,22,14,58,22.00
2014,08,22,14,59,22.10
2014,08,22,15,00,22.20
2014,08,22,15,01,22.40
2014,08,22,15,02,22.60
2014,08,22,15,03,22.60
2014,08,22,15,04,22.60
2014,08,22,15,05,22.60
2014,08,22,15,06,22.40
2014,08,22,15,07,22.30
2014,08,22,15,08,22.30
2014,08,22,15,09,22.40
2014,08,22,15,10,22.40
2014,08,22,15,11,22.50
2014,08,22,15,12,22.60
2014,08,22,15,13,22.70
2014,08,22,15,14,22.80
2014,08,22,15,15,22.90
2014,08,22,15,16,22.90
2014,08,22,15,17,22.90
2014,08,22,15,18,22.90
2014,08,22,15,19,22.90
2014,08,22,15,20,22.90
2014,08,22,15,21,22.90
2014,08,22,15,22,22.90
2014,08,22,15,23,22.90
2014,08,22,15,24,22.90
2014,08,22,15,25,22.90
2014,08,22,15,26,22.80
2014,08,22,15,27,22.60
2014,08,22,15,28,22.60
2014,08,22,15,29,22.60
2014,08,22,15,30,22.60
2014,08,22,15,31,22.70
2014,08,22,15,32,22.80
2014,08,22,15,33,22.80
2014,08,22,15,34,22.90
2014,08,22,15,35,22.90
2014,08,22,15,36,22.90
2014,08,22,15,37,22.90
2014,08,22,15,38,22.90
2014,08,22,15,39,22.70
2014,08,22,15,40,22.60
2014,08,22,15,41,22.60
2014,08,22,15,42,22.60
2014,08,22,15,43,22.60
2014,08,22,15,44,22.60
2014,08,22,15,45,22.60
2014,08,22,15,46,22.60
2014,08,22,15,47,22.60
2014,08,22,15,48,22.70
2014,08,22,15,49,22.80
2014,08,22,15,50,22.80
2014,08,22,15,51,22.90
2014,08,22,15,52,22.90
2014,08,22,15,53,22.80
2014,08,22,15,54,22.80
2014,08,22,15,55,22.90
2014,08,22,15,56,22.90
2014,08,22,15,57,23.00
2014,08,22,15,58,23.10
2014,08,22,15,59,23.10
2014,08,22,16,00,23.10
2014,08,22,16,01,22.90
2014,08,22,16,02,22.90
2014,08,22,16,03,22.90
2014,08,22,16,04,22.90
2014,08,22,16,05,22.90
2014,08,22,16,06,22.90
2014,08,22,16,07,22.90
2014,08,22,16,08,22.90
2014,08,22,16,09,22.90
2014,08,22,16,10,22.90
2014,08,22,16,11,22.90
2014,08,22,16,12,22.90
2014,08,22,16,13,22.90
2014,08,22,16,14,22.90
2014,08,22,16,15,23.00
2014,08,22,16,16,23.10
2014,08,22,16,17,23.10
2014,08,22,16,18,23.10
2014,08,22,16,19,23.10
2014,08,22,16,20,23.20
2014,08,22,16,21,23.30
2014,08,22,16,22,23.30
2014,08,22,16,23,23.30
2014,08,22,16,24,23.30
2014,08,22,16,25,23.30
2014,08,22,16,26,23.40
2014,08,22,16,27,23.60
2014,08,22,16,28,23.60
2014,08,22,16,29,23.60
2014,08,22,16,30,23.50
2014,08,22,16,31,23.40
2014,08,22,16,32,23.40
2014,08,22,16,33,23.30
2014,08,22,16,34,23.20
2014,08,22,16,35,23.00
2014,08,22,16,36,22.90
2014,08,22,16,37,22.80
2014,08,22,16,38,22.70
2014,08,22,16,39,22.70
2014,08,22,16,40,22.70
2014,08,22,16,41,22.70
2014,08,22,16,42,22.70
2014,08,22,16,43,22.80
2014,08,22,16,44,22.80
2014,08,22,16,45,22.80
2014,08,22,16,46,22.90
2014,08,22,16,47,22.90
2014,08,22,16,48,22.90
2014,08,22,16,49,22.90
2014,08,22,16,50,22.90
2014,08,22,16,51,22.80
2014,08,22,16,52,22.80
2014,08,22,16,53,22.80
2014,08,22,16,54,22.90
2014,08,22,16,55,22.90
2014,08,22,16,56,22.90
2014,08,22,16,57,22.90
2014,08,22,16,58,22.90
2014,08,22,16,59,22.90
2014,08,22,17,00,23.00
2014,08,22,17,01,23.10
2014,08,22,17,02,23.10
2014,08,22,17,03,23.10
2014,08,22,17,04,23.20
2014,08,22,17,05,23.20
2014,08,22,17,06,23.20
2014,08,22,17,07,23.20
2014,08,22,17,08,23.30
2014,08,22,17,09,23.30
2014,08,22,17,10,23.30
2014,08,22,17,11,23.30
2014,08,22,17,12,23.40
2014,08,22,17,13,23.50
2014,08,22,17,14,23.60
2014,08,22,17,15,23.70
2014,08,22,17,16,23.70
2014,08,22,17,17,23.70
2014,08,22,17,18,23.70
2014,08,22,17,19,23.70